| time (UTC) | temp C | wind direction | speed KPH | gust KPH | rain 1hr cm | rain 24hr cm | rain mn cm | humidity % | barometer mb |
| 20260902234550 | 21 | 147 | 0.0 | 0.0 | 0.00 | 0.00 | 0.00 | 32 | 1002.0 |
| 20260902233101 | 20 | 184 | 0.0 | 0.0 | 0.00 | 0.00 | 0.00 | 31 | 1002.1 |
| 20260902231615 | 20 | 259 | 0.0 | 0.0 | 0.00 | 0.00 | 0.00 | 31 | 1002.3 |
| 20260902230135 | 20 | 292 | 0.0 | 0.0 | 0.00 | 0.00 | 0.00 | 32 | 1002.4 |
| 20260902224502 | 21 | 213 | 0.0 | 3.2 | 0.00 | 0.00 | 0.00 | 29 | 1002.4 |
| 20260902223003 | 21 | 285 | 0.0 | 0.0 | 0.00 | 0.00 | 0.00 | 34 | 1002.4 |
| 20260902221502 | 22 | 306 | 0.0 | 1.6 | 0.00 | 0.00 | 0.00 | 27 | 1002.5 |
| 20260902220134 | 23 | 258 | 0.0 | 17.7 | 0.00 | 0.00 | 0.00 | 27 | 1002.5 |
| 20260902214502 | 22 | 234 | 0.0 | 1.6 | 0.00 | 0.00 | 0.00 | 26 | 1002.6 |
| 20260902213133 | 22 | 142 | 4.8 | 19.3 | 0.00 | 0.00 | 0.00 | 25 | 1002.7 |
| 20260902211501 | 21 | 248 | 0.0 | 0.0 | 0.00 | 0.00 | 0.00 | 25 | 1002.9 |
| 20260902210032 | 21 | 140 | 0.0 | 0.0 | 0.00 | 0.00 | 0.00 | 29 | 1003.3 |
| 20260902204522 | 21 | 271 | 0.0 | 0.0 | 0.00 | 0.00 | 0.00 | 29 | 1003.7 |
| 20260902203044 | 21 | 263 | 0.0 | 0.0 | 0.00 | 0.00 | 0.00 | 28 | 1003.8 |
| 20260902201550 | 21 | 206 | 0.0 | 0.0 | 0.00 | 0.00 | 0.00 | 28 | 1004.1 |
| 20260902200054 | 22 | 274 | 0.0 | 8.0 | 0.00 | 0.00 | 0.00 | 29 | 1004.2 |
| 20260902194604 | 22 | 150 | 0.0 | 0.0 | 0.00 | 0.00 | 0.00 | 33 | 1004.2 |
| 20260902193130 | 22 | 126 | 0.0 | 1.6 | 0.00 | 0.00 | 0.00 | 31 | 1004.5 |
| 20260902191511 | 22 | 175 | 0.0 | 0.0 | 0.00 | 0.00 | 0.00 | 31 | 1004.6 |
| 20260902190032 | 21 | 286 | 0.0 | 0.0 | 0.00 | 0.00 | 0.00 | 30 | 1005.1 |
| 20260902184553 | 21 | 202 | 0.0 | 0.0 | 0.00 | 0.00 | 0.00 | 34 | 1005.3 |
| 20260902183130 | 21 | 222 | 0.0 | 1.6 | 0.00 | 0.00 | 0.00 | 32 | 1005.5 |
| 20260902181512 | 20 | 170 | 0.0 | 1.6 | 0.00 | 0.00 | 0.00 | 34 | 1005.7 |
| 20260902180153 | 20 | 255 | 0.0 | 0.0 | 0.00 | 0.00 | 0.00 | 33 | 1005.9 |
| 20260902174509 | 20 | 274 | 0.0 | 20.9 | 0.00 | 0.00 | 0.00 | 37 | 1005.9 |
| 20260902173034 | 19 | 269 | 0.0 | 3.2 | 0.00 | 0.00 | 0.00 | 41 | 1006.0 |
| 20260902171540 | 18 | 42 | 0.0 | 0.0 | 0.00 | 0.00 | 0.00 | 40 | 1006.1 |
| 20260902170041 | 17 | 328 | 0.0 | 0.0 | 0.00 | 0.00 | 0.00 | 43 | 1006.3 |
| 20260902164551 | 17 | 322 | 0.0 | 0.0 | 0.00 | 0.00 | 0.00 | 43 | 1006.3 |
| 20260902163105 | 17 | 308 | 0.0 | 0.0 | 0.00 | 0.00 | 0.00 | 42 | 1006.4 |
| 20260902161608 | 16 | 44 | 0.0 | 0.0 | 0.00 | 0.00 | 0.00 | 46 | 1006.8 |
| 20260902160026 | 16 | 315 | 0.0 | 0.0 | 0.00 | 0.00 | 0.00 | 43 | 1006.9 |
| 20260902154530 | 16 | 319 | 0.0 | 0.0 | 0.00 | 0.00 | 0.00 | 47 | 1007.0 |
| 20260902153059 | 16 | 35 | 0.0 | 0.0 | 0.00 | 0.00 | 0.00 | 44 | 1007.1 |
| 20260902151607 | 15 | 269 | 0.0 | 0.0 | 0.00 | 0.00 | 0.00 | 47 | 1007.3 |
| 20260902150007 | 15 | 288 | 0.0 | 0.0 | 0.00 | 0.00 | 0.00 | 48 | 1007.4 |
| 20260902144529 | 14 | 327 | 0.0 | 0.0 | 0.00 | 0.00 | 0.00 | 48 | 1007.4 |
| 20260902143041 | 13 | 355 | 0.0 | 0.0 | 0.00 | 0.00 | 0.00 | 48 | 1007.4 |
| 20260902141541 | 12 | 15 | 0.0 | 0.0 | 0.00 | 0.00 | 0.00 | 52 | 1007.2 |
| 20260902140055 | 12 | 18 | 0.0 | 0.0 | 0.00 | 0.00 | 0.00 | 55 | 1007.3 |
| 20260902134557 | 11 | 33 | 0.0 | 0.0 | 0.00 | 0.00 | 0.00 | 59 | 1007.1 |
| 20260902133059 | 11 | 34 | 0.0 | 0.0 | 0.00 | 0.00 | 0.00 | 56 | 1006.8 |
| 20260902131553 | 10 | 30 | 0.0 | 0.0 | 0.00 | 0.00 | 0.00 | 58 | 1006.8 |
| 20260902130057 | 10 | 30 | 0.0 | 0.0 | 0.00 | 0.00 | 0.00 | 59 | 1006.6 |
| 20260902124600 | 10 | 79 | 0.0 | 0.0 | 0.00 | 0.00 | 0.00 | 60 | 1006.6 |
| 20260902123112 | 10 | 88 | 0.0 | 0.0 | 0.00 | 0.00 | 0.00 | 60 | 1006.4 |
| 20260902121511 | 10 | 88 | 0.0 | 0.0 | 0.00 | 0.00 | 0.00 | 58 | 1006.2 |
| 20260902120012 | 11 | 88 | 0.0 | 0.0 | 0.00 | 0.00 | 0.00 | 57 | 1006.2 |
| 20260902114538 | 11 | 90 | 0.0 | 0.0 | 0.00 | 0.00 | 0.00 | 57 | 1006.0 |
| 20260902113035 | 11 | 89 | 0.0 | 0.0 | 0.00 | 0.00 | 0.00 | 58 | 1006.0 |
| 20260902111551 | 11 | 90 | 0.0 | 0.0 | 0.00 | 0.00 | 0.00 | 58 | 1006.0 |
| 20260902110057 | 11 | 87 | 0.0 | 0.0 | 0.00 | 0.00 | 0.00 | 60 | 1005.9 |
| 20260902104559 | 11 | 57 | 0.0 | 0.0 | 0.00 | 0.00 | 0.00 | 61 | 1006.0 |
| 20260902103030 | 11 | 138 | 0.0 | 0.0 | 0.00 | 0.00 | 0.00 | 61 | 1006.0 |
| 20260902101542 | 10 | 138 | 0.0 | 0.0 | 0.00 | 0.00 | 0.00 | 62 | 1005.9 |
| 20260902094543 | 10 | 138 | 0.0 | 0.0 | 0.00 | 0.00 | 0.00 | 66 | 1006.1 |
| 20260902093046 | 10 | 143 | 0.0 | 0.0 | 0.00 | 0.00 | 0.00 | 66 | 1006.0 |
| 20260902091534 | 10 | 143 | 0.0 | 0.0 | 0.00 | 0.00 | 0.00 | 69 | 1006.0 |
| 20260902090043 | 10 | 143 | 0.0 | 0.0 | 0.00 | 0.00 | 0.00 | 70 | 1006.0 |
| 20260902084557 | 10 | 143 | 0.0 | 0.0 | 0.00 | 0.00 | 0.00 | 71 | 1006.0 |
| 20260902083035 | 10 | 144 | 0.0 | 0.0 | 0.00 | 0.00 | 0.00 | 71 | 1005.9 |
| 20260902081559 | 10 | 144 | 0.0 | 0.0 | 0.00 | 0.00 | 0.00 | 71 | 1005.9 |
| 20260902080046 | 10 | 143 | 0.0 | 0.0 | 0.00 | 0.00 | 0.00 | 71 | 1005.8 |
| 20260902074544 | 10 | 143 | 0.0 | 0.0 | 0.00 | 0.00 | 0.00 | 70 | 1005.9 |
| 20260902073028 | 11 | 144 | 0.0 | 0.0 | 0.00 | 0.00 | 0.00 | 69 | 1005.9 |
| 20260902071508 | 11 | 143 | 0.0 | 0.0 | 0.00 | 0.00 | 0.00 | 67 | 1005.6 |
| 20260902070126 | 11 | 144 | 0.0 | 0.0 | 0.00 | 0.00 | 0.00 | 68 | 1005.3 |
| 20260902064504 | 11 | 143 | 0.0 | 0.0 | 0.00 | 0.00 | 0.00 | 68 | 1005.2 |
| 20260902063026 | 12 | 143 | 0.0 | 0.0 | 0.00 | 0.00 | 0.00 | 66 | 1005.0 |
| 20260902061611 | 12 | 143 | 0.0 | 0.0 | 0.00 | 0.00 | 0.00 | 64 | 1005.0 |
| 20260902060058 | 12 | 145 | 0.0 | 0.0 | 0.00 | 0.00 | 0.00 | 64 | 1005.1 |
| 20260902054540 | 13 | 145 | 0.0 | 0.0 | 0.00 | 0.00 | 0.00 | 62 | 1005.1 |
| 20260902053049 | 13 | 145 | 0.0 | 0.0 | 0.00 | 0.00 | 0.00 | 63 | 1005.1 |
| 20260902051600 | 13 | 145 | 0.0 | 0.0 | 0.00 | 0.00 | 0.00 | 65 | 1005.2 |
| 20260902050122 | 13 | 161 | 0.0 | 0.0 | 0.00 | 0.00 | 0.00 | 66 | 1005.4 |
| 20260902044552 | 13 | 161 | 0.0 | 0.0 | 0.00 | 0.00 | 0.00 | 65 | 1005.5 |
| 20260902043055 | 13 | 173 | 0.0 | 0.0 | 0.00 | 0.00 | 0.00 | 65 | 1005.6 |
| 20260902041555 | 14 | 182 | 0.0 | 0.0 | 0.00 | 0.00 | 0.00 | 63 | 1005.7 |
| 20260902040057 | 15 | 186 | 0.0 | 0.0 | 0.00 | 0.00 | 0.00 | 61 | 1005.7 |
| 20260902034558 | 15 | 141 | 0.0 | 0.0 | 0.00 | 0.00 | 0.00 | 60 | 1005.7 |
| 20260902033056 | 15 | 151 | 0.0 | 12.9 | 0.00 | 0.00 | 0.00 | 59 | 1005.5 |
| 20260902031542 | 15 | 148 | 1.6 | 17.7 | 0.00 | 0.00 | 0.00 | 58 | 1005.4 |
| 20260902030153 | 15 | 110 | 0.0 | 4.8 | 0.00 | 0.00 | 0.00 | 58 | 1005.3 |
| 20260902024610 | 15 | 161 | 4.8 | 16.1 | 0.00 | 0.00 | 0.00 | 58 | 1005.1 |
| 20260902023109 | 15 | 115 | 4.8 | 20.9 | 0.00 | 0.00 | 0.00 | 59 | 1004.9 |
| 20260902021604 | 15 | 92 | 6.4 | 16.1 | 0.00 | 0.00 | 0.00 | 60 | 1004.9 |
| 20260902020107 | 15 | 134 | 0.0 | 14.5 | 0.00 | 0.00 | 0.00 | 58 | 1004.6 |
| 20260902014552 | 16 | 161 | 0.0 | 0.0 | 0.00 | 0.03 | 0.00 | 54 | 1004.6 |
| 20260902013037 | 16 | 161 | 0.0 | 8.0 | 0.00 | 0.03 | 0.00 | 48 | 1004.6 |
| 20260902011532 | 17 | 158 | 0.0 | 0.0 | 0.00 | 0.03 | 0.00 | 43 | 1004.8 |
| 20260902010127 | 18 | 184 | 0.0 | 0.0 | 0.00 | 0.03 | 0.00 | 37 | 1005.0 |
| 20260902004601 | 18 | 184 | 0.0 | 0.0 | 0.00 | 0.03 | 0.00 | 36 | 1005.0 |
| 20260902003127 | 19 | 184 | 0.0 | 0.0 | 0.00 | 0.03 | 0.00 | 35 | 1005.1 |
| 20260902001655 | 20 | 198 | 0.0 | 0.0 | 0.00 | 0.03 | 0.00 | 34 | 1005.1 |
| 20260902000040 | 21 | 158 | 0.0 | 0.0 | 0.00 | 0.03 | 0.00 | 31 | 1005.0 |